Preview of NWS' New Version of Forecast
This preview is not operational and should not be used for support decisions.

Regional Weather Roundup (RWR)

Issued by National Weather Service (NWS)

                            
000
ASUS43 KDMX 250001
RWRIA 

WEATHER ROUNDUP FOR IOWA
NATIONAL WEATHER SERVICE DES MOINES IA
700 PM CDT MON JUN 24 2019

NOTE: "FAIR" INDICATES FEW OR NO CLOUDS BELOW 12,000 FEET WITH NO
SIGNIFICANT WEATHER AND/OR OBSTRUCTIONS TO VISIBILITY.

* - THESE STATIONS ARE NOT NWS STATIONS...THUS NOT UNDER NWS
QUALITY CONTROL.  THEY ALSO DO NOT REPORT WEATHER SUCH 
AS PRECIPITATION OR FOG.  

IAZ001>003-012>014-020>022-031>034-043>046-250100-
   NORTHWEST IOWA
  
CITY           SKY/WX    TMP DP  RH WIND       PRES   REMARKS
CARROLL *      SUNNY     79  55  44 W13G21    29.73R                  
CHEROKEE *     MOSUNNY   75  55  50 W6        29.72S                  
DENISON *      SUNNY     77  55  47 W12G18    29.75S                  
LE MARS *      PTSUNNY   73  57  56 N15G29    29.73R                  
SHELDON *      SUNNY     75  59  57 W15G22    29.70R                  
SIOUX CITY     SUNNY     80  55  42 W12       29.71F HX  80           
6HR MIN TEMP:  75; 6HR MAX TEMP:  83;                                

SPENCER        PTSUNNY   76  60  57 W7        29.70S                  
6HR MIN TEMP:  71; 6HR MAX TEMP:  79;                                

STORM LAKE *   SUNNY     77  57  50 W13       29.70R                  
$$
 
IAZ055>058-069>071-079>083-090>094-250100-
   SOUTHWEST IOWA
  
CITY           SKY/WX    TMP DP  RH WIND       PRES   REMARKS
ATLANTIC *     SUNNY     77  54  44 W13G20    29.75S                  
AUDUBON *      SUNNY     77  57  50 CALM      29.76S                  
CLARINDA *     SUNNY     79  54  41 W14G21    29.80S                  
COUNCIL BLFS * SUNNY     79  54  41 W12       29.75S                  
CRESTON *      SUNNY     75  55  50 W12G20    29.78R                  
HARLAN  *      SUNNY     77  55  47 W12G18    29.75S                  
LAMONI         SUNNY     77  56  48 W14       29.79R                  
6HR MIN TEMP:  71; 6HR MAX TEMP:  78;                                

RED OAK *      SUNNY     79  57  47 SW10      29.77S HX  80           
SHENANDOAH *   SUNNY     79  57  47 W9G15     29.77S HX  80           
$$
 
IAZ047>049-059>061-072>074-084-250100-
   CENTRAL IOWA
  
CITY           SKY/WX    TMP DP  RH WIND       PRES   REMARKS
AMES           TSTM      66  58  75 W8G23     29.73R                  
6HR MIN TEMP:  64; 6HR MAX TEMP:  79; 6HR PCP:  0.19;                

ANKENY *       SUNNY     77  55  47 W12       29.74S                  
BOONE *        PTSUNNY   66  66 100 N6        29.73F                  
CHARITON *     SUNNY     77  59  53 W12       29.76S                  
DES MOINES     MOSUNNY   78  54  43 W14       29.73R                  
6HR MIN TEMP:  71; 6HR MAX TEMP:  79;                                

GRINNELL*      SUNNY     75  56  51 W14       29.74S                  
KNOXVILLE *    SUNNY     77  57  50 SW13      29.75R                  
MARSHALLTOWN   SUNNY     73  58  59 W7        29.71R                  
6HR MIN TEMP:  67; 6HR MAX TEMP:  76; 6HR PCP: TRACE;                

NEWTON *       SUNNY     77  57  50 W9G17     29.73S                  
PELLA *          N/A     77  56  47 W14G20    29.75S                  
$$
 
IAZ004>006-015-016-023>025-035-036-250100-
   NORTH CENTRAL IOWA
  
CITY           SKY/WX    TMP DP  RH WIND       PRES   REMARKS
ALGONA *       SUNNY     75  57  53 W13       29.69S                  
CLARION *      SUNNY     73  59  60 W13       29.71S                  
ESTHERVILLE    SUNNY     75  57  53 W10       29.68S                  
6HR MIN TEMP:  66; 6HR MAX TEMP:  75; 6HR PCP:  0.01;                

FORT DODGE *   MOSUNNY   73  59  61 W6        29.72S                  
MASON CITY     SUNNY     74  58  57 W12       29.70R                  
6HR MIN TEMP:  63; 6HR MAX TEMP:  76; 6HR PCP:  0.01;                

FOREST CITY *  FAIR      75  54  46 W10       29.69S                  
IOWA FALLS *   FAIR      75  61  63 W13       29.72S                  
$$

IAZ007>011-017>019-026>030-037>042-050>054-066-250100-
   NORTHEAST IOWA
  
CITY           SKY/WX    TMP DP  RH WIND       PRES   REMARKS
CEDAR RAPIDS   FAIR      73  57  57 W20G25    29.70R                  
6HR MIN TEMP:  63; 6HR MAX TEMP:  74; 6HR PCP:  0.08;                

CHARLES CITY * FAIR      73  55  53 NW14G22   29.68R                  
CLINTON *      FAIR      73  61  65 W23       29.69R                  
DECORAH *      FAIR      66  61  82 VRB7      29.67R                  
DUBUQUE        FAIR      69  58  67 W17G40    29.70R                  
6HR MIN TEMP:  65; 6HR MAX TEMP:  73; 6HR PCP:  0.02;                

MONTICELLO *   FAIR      75  59  57 W16       29.68S                  
OELWEIN *      FAIR      72  61  68 W17G31    29.68S                  
WATERLOO       FAIR      76  57  51 W13       29.68R                  
6HR MIN TEMP:  69; 6HR MAX TEMP:  78; 6HR PCP: TRACE;                

$$
 
IAZ064-065-067-068-078-250100-
   EAST CENTRAL IOWA
  
CITY           SKY/WX    TMP DP  RH WIND       PRES   REMARKS
DAVENPORT      FAIR      73  58  59 W20G28    29.72R                  
6HR MIN TEMP:  63; 6HR MAX TEMP:  76; 6HR PCP:  0.20;                

IOWA CITY      PTSUNNY   75  56  51 W15       29.73R                  
6HR MIN TEMP:  70; 6HR MAX TEMP:  77; 6HR PCP: TRACE;                

MT. PLEASANT * MOSUNNY   77  59  53 W12G18    29.75S                  
MUSCATINE *    FAIR      77  55  47 W14G21    29.72S                  
QUAD CITIES    FAIR      75  59  57 W17G25    29.71R                  
6HR MIN TEMP:  72; 6HR MAX TEMP:  80; 6HR PCP:  0.01;                

$$
 
IAZ062-063-075>077-085>089-095>099-250100-
   SOUTHEAST IOWA
  
CITY           SKY/WX    TMP DP  RH WIND       PRES   REMARKS
BURLINGTON     SUNNY     75  58  55 W10G21    29.75R                  
6HR MIN TEMP:  73; 6HR MAX TEMP:  77;                                

FAIRFIELD *    SUNNY     75  57  53 W12G20    29.75S                  
FORT MADISON * MOSUNNY   75  61  60 W6        29.77R                  
KEOKUK *       PTSUNNY   73  61  64 W9        29.77R                  
OSKALOOSA *    FAIR      76  57  53 W15       29.75R                  
CENTERVILLE *  FAIR      75  59  57 SW12      29.80R                  
OTTUMWA        SUNNY     76  59  55 W10       29.75R                  
6HR MIN TEMP:  70; 6HR MAX TEMP:  77;                                

WASHINGTON *   SUNNY     75  63  64 W10       29.73R                  
$$

ABBREVIATIONS USED IN REMARKS
   TC - TEMPERATURES IN CELSIUS
  WCI - WIND CHILL INDEX
   HX - HEAT INDEX
  VSB - VISIBILITY  
$$